Location: Altmatt
(47.1333°N, 8.7000°E)
Time: 18:55:42
(UTC+00:00)

Cosmos 2237 Rocket - Pass Details

Date: 13 July 2020
Orbit: 835 x 850 km, 71.0° (Epoch: 11 August)

Event Time Altitude Azimuth Distance (km) Brightness Sun altitude
Rises 20:11:37 0° 193° (SSW) 3,398 5.0 -7.9°
Reaches altitude 10° 20:14:05 10° 190° (S) 2,468 4.3 -8.2°
Maximum altitude 20:19:39 60° 111° (ESE) 967 2.3 -8.8°
Drops below altitude 10° 20:25:15 10° 33° (NNE) 2,486 4.8 -9.5°
Sets 20:27:44 0° 30° (NNE) 3,425 5.6 -9.8°
